owner,sensor,date,latitude,longitude,air_pressure(mBar),qcFlag 
TABS,ioos:station:wmo:42043:1,2005-11-01T00:00:00Z,28.9818,-94.9186,1017.75,11111222 
TABS,ioos:station:wmo:42043:1,2005-11-01T00:30:00Z,28.9818,-94.9186,1019.75,11111222 
TABS,ioos:station:wmo:42043:1,2005-11-01T01:00:00Z,28.9818,-94.9186,1020.17,11111222 
TABS,ioos:station:wmo:42043:1,2005-11-01T01:30:00Z,28.9818,-94.9186,1019.98,11111222 
TABS,ioos:station:wmo:42043:1,2005-11-01T02:00:00Z,28.9818,-94.9186,1020.86,11111222 
TABS,ioos:station:wmo:42043:1,2005-11-01T02:30:00Z,28.9818,-94.9186,1021.18,11111222 
TABS,ioos:station:wmo:42043:1,2005-11-01T03:00:00Z,28.9818,-94.9186,1021.24,11111222 
TABS,ioos:station:wmo:42043:1,2005-11-01T03:30:00Z,28.9818,-94.9186,1021.48,11111222 
TABS,ioos:station:wmo:42043:1,2005-11-01T04:00:00Z,28.9818,-94.9186,1021.59,11111222 
TABS,ioos:station:wmo:42043:1,2005-11-01T04:30:00Z,28.9818,-94.9186,1021.65,11111222 
TABS,ioos:station:wmo:42043:1,2005-11-01T05:00:00Z,28.9818,-94.9186,1021.42,11111222 
TABS,ioos:station:wmo:42043:1,2005-11-01T05:30:00Z,28.9818,-94.9186,1021.26,11111222 
TABS,ioos:station:wmo:42043:1,2005-11-01T06:00:00Z,28.9818,-94.9186,1021.02,11111222 
TABS,ioos:station:wmo:42043:1,2005-11-01T06:30:00Z,28.9818,-94.9186,1020.95,11111222 
TABS,ioos:station:wmo:42043:1,2005-11-01T07:00:00Z,28.9818,-94.9186,1021.3,11111222 
TABS,ioos:station:wmo:42043:1,2005-11-01T07:30:00Z,28.9818,-94.9186,1021.44,11111222 
TABS,ioos:station:wmo:42043:1,2005-11-01T08:00:00Z,28.9818,-94.9186,1021.59,11111222 
TABS,ioos:station:wmo:42043:1,2005-11-01T08:30:00Z,28.9818,-94.9186,1021.51,11111222 
TABS,ioos:station:wmo:42043:1,2005-11-01T09:00:00Z,28.9818,-94.9186,1021.39,11111222 
TABS,ioos:station:wmo:42043:1,2005-11-01T09:30:00Z,28.9818,-94.9186,1021.41,11111222 
TABS,ioos:station:wmo:42043:1,2005-11-01T10:00:00Z,28.9818,-94.9186,1021.64,11111222 
TABS,ioos:station:wmo:42043:1,2005-11-01T10:30:00Z,28.9818,-94.9186,1021.73,11111222 
TABS,ioos:station:wmo:42043:1,2005-11-01T11:00:00Z,28.9818,-94.9186,1022.01,11111222 
TABS,ioos:station:wmo:42043:1,2005-11-01T11:30:00Z,28.9818,-94.9186,1022.16,11111222 
TABS,ioos:station:wmo:42043:1,2005-11-01T12:00:00Z,28.9818,-94.9186,1022.62,11111222 
TABS,ioos:station:wmo:42043:1,2005-11-01T12:30:00Z,28.9818,-94.9186,1023.1,11111222 
TABS,ioos:station:wmo:42043:1,2005-11-01T13:00:00Z,28.9818,-94.9186,1023.56,11111222 
TABS,ioos:station:wmo:42043:1,2005-11-01T13:30:00Z,28.9818,-94.9186,1023.8,11111222 
TABS,ioos:station:wmo:42043:1,2005-11-01T14:00:00Z,28.9818,-94.9186,1024.19,11111222 
TABS,ioos:station:wmo:42043:1,2005-11-01T14:30:00Z,28.9818,-94.9186,1024.09,11111222 
TABS,ioos:station:wmo:42043:1,2005-11-01T15:00:00Z,28.9818,-94.9186,1024.31,11111222 
TABS,ioos:station:wmo:42043:1,2005-11-01T15:30:00Z,28.9818,-94.9186,1024.68,11111222 
TABS,ioos:station:wmo:42043:1,2005-11-01T16:00:00Z,28.9818,-94.9186,1024.59,11111222 
TABS,ioos:station:wmo:42043:1,2005-11-01T16:30:00Z,28.9818,-94.9186,1024.63,11111222 
TABS,ioos:station:wmo:42043:1,2005-11-01T17:00:00Z,28.9818,-94.9186,1024.33,11111222 
TABS,ioos:station:wmo:42043:1,2005-11-01T17:30:00Z,28.9818,-94.9186,1023.96,11111222 
TABS,ioos:station:wmo:42043:1,2005-11-01T18:00:00Z,28.9818,-94.9186,1023.46,11111222 
TABS,ioos:station:wmo:42043:1,2005-11-01T18:30:00Z,28.9818,-94.9186,1023.15,11111222 
TABS,ioos:station:wmo:42043:1,2005-11-01T19:00:00Z,28.9818,-94.9186,1022.7,11111222 
TABS,ioos:station:wmo:42043:1,2005-11-01T19:30:00Z,28.9818,-94.9186,1022.37,11111222 
TABS,ioos:station:wmo:42043:1,2005-11-01T20:00:00Z,28.9818,-94.9186,1022.04,11111222 
TABS,ioos:station:wmo:42043:1,2005-11-01T20:30:00Z,28.9818,-94.9186,1022.12,11111222 
TABS,ioos:station:wmo:42043:1,2005-11-01T21:00:00Z,28.9818,-94.9186,1022.16,11111222 
TABS,ioos:station:wmo:42043:1,2005-11-01T21:30:00Z,28.9818,-94.9186,1022.27,11111222 
TABS,ioos:station:wmo:42043:1,2005-11-01T22:00:00Z,28.9818,-94.9186,1022.38,11111222 
TABS,ioos:station:wmo:42043:1,2005-11-01T22:30:00Z,28.9818,-94.9186,1022.4,11111222 
TABS,ioos:station:wmo:42043:1,2005-11-01T23:00:00Z,28.9818,-94.9186,1022.53,11111222 
TABS,ioos:station:wmo:42043:1,2005-11-01T23:30:00Z,28.9818,-94.9186,1022.9,11111222 
TABS,ioos:station:wmo:42043:1,2005-11-02T00:00:00Z,28.9818,-94.9186,1023.36,11111222 
TABS,ioos:station:wmo:42043:1,2005-11-02T00:30:00Z,28.9818,-94.9186,1023.74,11111222 
TABS,ioos:station:wmo:42043:1,2005-11-02T01:00:00Z,28.9818,-94.9186,1023.91,11111222 
TABS,ioos:station:wmo:42043:1,2005-11-02T01:30:00Z,28.9818,-94.9186,1024.08,11111222 
TABS,ioos:station:wmo:42043:1,2005-11-02T02:00:00Z,28.9818,-94.9186,1024.36,11111222 
TABS,ioos:station:wmo:42043:1,2005-11-02T02:30:00Z,28.9818,-94.9186,1024.43,11111222 
TABS,ioos:station:wmo:42043:1,2005-11-02T03:00:00Z,28.9818,-94.9186,1024.62,11111222 
TABS,ioos:station:wmo:42043:1,2005-11-02T03:30:00Z,28.9818,-94.9186,1024.78,11111222 
TABS,ioos:station:wmo:42043:1,2005-11-02T04:00:00Z,28.9818,-94.9186,1024.83,11111222 
TABS,ioos:station:wmo:42043:1,2005-11-02T04:30:00Z,28.9818,-94.9186,1024.83,11111222 
TABS,ioos:station:wmo:42043:1,2005-11-02T05:00:00Z,28.9818,-94.9186,1025.04,11111222 
TABS,ioos:station:wmo:42043:1,2005-11-02T05:30:00Z,28.9818,-94.9186,1025.07,11111222 
TABS,ioos:station:wmo:42043:1,2005-11-02T06:00:00Z,28.9818,-94.9186,1025.19,11111222 
TABS,ioos:station:wmo:42043:1,2005-11-02T06:30:00Z,28.9818,-94.9186,1024.96,11111222 
TABS,ioos:station:wmo:42043:1,2005-11-02T07:00:00Z,28.9818,-94.9186,1024.96,11111222 
TABS,ioos:station:wmo:42043:1,2005-11-02T07:30:00Z,28.9818,-94.9186,1024.94,11111222 
TABS,ioos:station:wmo:42043:1,2005-11-02T08:00:00Z,28.9818,-94.9186,1024.73,11111222 
TABS,ioos:station:wmo:42043:1,2005-11-02T08:30:00Z,28.9818,-94.9186,1024.56,11111222 
TABS,ioos:station:wmo:42043:1,2005-11-02T09:00:00Z,28.9818,-94.9186,1024.46,11111222 
TABS,ioos:station:wmo:42043:1,2005-11-02T09:30:00Z,28.9818,-94.9186,1024.39,11111222 
TABS,ioos:station:wmo:42043:1,2005-11-02T10:00:00Z,28.9818,-94.9186,1024.51,11111222 
TABS,ioos:station:wmo:42043:1,2005-11-02T10:30:00Z,28.9818,-94.9186,1024.71,11111222 
TABS,ioos:station:wmo:42043:1,2005-11-02T11:00:00Z,28.9818,-94.9186,1024.79,11111222 
TABS,ioos:station:wmo:42043:1,2005-11-02T11:30:00Z,28.9818,-94.9186,1024.94,11111222 
TABS,ioos:station:wmo:42043:1,2005-11-02T12:00:00Z,28.9818,-94.9186,1025.07,11111222 
TABS,ioos:station:wmo:42043:1,2005-11-02T12:30:00Z,28.9818,-94.9186,1025.49,11111222 
TABS,ioos:station:wmo:42043:1,2005-11-02T13:00:00Z,28.9818,-94.9186,1025.78,11111222 
TABS,ioos:station:wmo:42043:1,2005-11-02T13:30:00Z,28.9818,-94.9186,1026.04,11111222 
TABS,ioos:station:wmo:42043:1,2005-11-02T14:00:00Z,28.9818,-94.9186,1026.56,11111222 
TABS,ioos:station:wmo:42043:1,2005-11-02T14:30:00Z,28.9818,-94.9186,1027.13,11111222 
TABS,ioos:station:wmo:42043:1,2005-11-02T15:00:00Z,28.9818,-94.9186,1027.34,11111222 
TABS,ioos:station:wmo:42043:1,2005-11-02T15:30:00Z,28.9818,-94.9186,1027.55,11111222 
TABS,ioos:station:wmo:42043:1,2005-11-02T16:00:00Z,28.9818,-94.9186,1027.45,11111222 
TABS,ioos:station:wmo:42043:1,2005-11-02T16:30:00Z,28.9818,-94.9186,1027.31,11111222 
TABS,ioos:station:wmo:42043:1,2005-11-02T17:00:00Z,28.9818,-94.9186,1026.94,11111222 
TABS,ioos:station:wmo:42043:1,2005-11-02T17:30:00Z,28.9818,-94.9186,1026.53,11111222 
TABS,ioos:station:wmo:42043:1,2005-11-02T18:00:00Z,28.9818,-94.9186,1026.16,11111222 
TABS,ioos:station:wmo:42043:1,2005-11-02T18:30:00Z,28.9818,-94.9186,1025.87,11111222 
TABS,ioos:station:wmo:42043:1,2005-11-02T19:00:00Z,28.9818,-94.9186,1025.42,11111222 
TABS,ioos:station:wmo:42043:1,2005-11-02T19:30:00Z,28.9818,-94.9186,1025.12,11111222 
TABS,ioos:station:wmo:42043:1,2005-11-02T20:00:00Z,28.9818,-94.9186,1024.94,11111222 
TABS,ioos:station:wmo:42043:1,2005-11-02T20:30:00Z,28.9818,-94.9186,1024.7,11111222 
TABS,ioos:station:wmo:42043:1,2005-11-02T21:00:00Z,28.9818,-94.9186,1024.71,11111222 
TABS,ioos:station:wmo:42043:1,2005-11-02T21:30:00Z,28.9818,-94.9186,1024.51,11111222 
TABS,ioos:station:wmo:42043:1,2005-11-02T22:00:00Z,28.9818,-94.9186,1024.28,11111222 
TABS,ioos:station:wmo:42043:1,2005-11-02T22:30:00Z,28.9818,-94.9186,1024.14,11111222 
TABS,ioos:station:wmo:42043:1,2005-11-02T23:00:00Z,28.9818,-94.9186,1024.12,11111222 
TABS,ioos:station:wmo:42043:1,2005-11-02T23:30:00Z,28.9818,-94.9186,1024.1,11111222 
TABS,ioos:station:wmo:42043:1,2005-11-03T00:00:00Z,28.9818,-94.9186,1024.27,11111222 
TABS,ioos:station:wmo:42043:1,2005-11-03T00:30:00Z,28.9818,-94.9186,1024.47,11111222 
TABS,ioos:station:wmo:42043:1,2005-11-03T01:00:00Z,28.9818,-94.9186,1024.43,11111222 
TABS,ioos:station:wmo:42043:1,2005-11-03T01:30:00Z,28.9818,-94.9186,1024.56,11111222 
TABS,ioos:station:wmo:42043:1,2005-11-03T02:00:00Z,28.9818,-94.9186,1024.77,11111222 
TABS,ioos:station:wmo:42043:1,2005-11-03T02:30:00Z,28.9818,-94.9186,1024.8,11111222 
TABS,ioos:station:wmo:42043:1,2005-11-03T03:00:00Z,28.9818,-94.9186,1024.82,11111222 
TABS,ioos:station:wmo:42043:1,2005-11-03T03:30:00Z,28.9818,-94.9186,1024.82,11111222 
TABS,ioos:station:wmo:42043:1,2005-11-03T04:00:00Z,28.9818,-94.9186,1024.89,11111222 
TABS,ioos:station:wmo:42043:1,2005-11-03T04:30:00Z,28.9818,-94.9186,1024.82,11111222 
TABS,ioos:station:wmo:42043:1,2005-11-03T05:00:00Z,28.9818,-94.9186,1024.72,11111222 
TABS,ioos:station:wmo:42043:1,2005-11-03T05:30:00Z,28.9818,-94.9186,1024.51,11111222 
TABS,ioos:station:wmo:42043:1,2005-11-03T06:00:00Z,28.9818,-94.9186,1024.23,11111222 
TABS,ioos:station:wmo:42043:1,2005-11-03T06:30:00Z,28.9818,-94.9186,1024.2,11111222 
TABS,ioos:station:wmo:42043:1,2005-11-03T07:00:00Z,28.9818,-94.9186,1024.05,11111222 
TABS,ioos:station:wmo:42043:1,2005-11-03T07:30:00Z,28.9818,-94.9186,1023.73,11111222 
TABS,ioos:station:wmo:42043:1,2005-11-03T08:00:00Z,28.9818,-94.9186,1023.49,11111222 
TABS,ioos:station:wmo:42043:1,2005-11-03T08:30:00Z,28.9818,-94.9186,1023.37,11111222 
TABS,ioos:station:wmo:42043:1,2005-11-03T09:00:00Z,28.9818,-94.9186,1022.97,11111222 
TABS,ioos:station:wmo:42043:1,2005-11-03T09:30:00Z,28.9818,-94.9186,1022.63,11111222 
TABS,ioos:station:wmo:42043:1,2005-11-03T10:00:00Z,28.9818,-94.9186,1022.58,11111222 
TABS,ioos:station:wmo:42043:1,2005-11-03T10:30:00Z,28.9818,-94.9186,1022.64,11111222 
TABS,ioos:station:wmo:42043:1,2005-11-03T11:00:00Z,28.9818,-94.9186,1022.83,11111222 
TABS,ioos:station:wmo:42043:1,2005-11-03T11:30:00Z,28.9818,-94.9186,1022.82,11111222 
TABS,ioos:station:wmo:42043:1,2005-11-03T12:00:00Z,28.9818,-94.9186,1023.18,11111222 
TABS,ioos:station:wmo:42043:1,2005-11-03T12:30:00Z,28.9818,-94.9186,1023.33,11111222 
TABS,ioos:station:wmo:42043:1,2005-11-03T13:00:00Z,28.9818,-94.9186,1023.58,11111222 
TABS,ioos:station:wmo:42043:1,2005-11-03T13:30:00Z,28.9818,-94.9186,1023.87,11111222 
TABS,ioos:station:wmo:42043:1,2005-11-03T14:00:00Z,28.9818,-94.9186,1024.03,11111222 
TABS,ioos:station:wmo:42043:1,2005-11-03T14:30:00Z,28.9818,-94.9186,1024.26,11111222 
TABS,ioos:station:wmo:42043:1,2005-11-03T15:00:00Z,28.9818,-94.9186,1024.37,11111222 
TABS,ioos:station:wmo:42043:1,2005-11-03T15:30:00Z,28.9818,-94.9186,1024.42,11111222 
TABS,ioos:station:wmo:42043:1,2005-11-03T16:00:00Z,28.9818,-94.9186,1024.49,11111222 
TABS,ioos:station:wmo:42043:1,2005-11-03T16:30:00Z,28.9818,-94.9186,1024.39,11111222 
TABS,ioos:station:wmo:42043:1,2005-11-03T17:00:00Z,28.9818,-94.9186,1024.22,11111222 
TABS,ioos:station:wmo:42043:1,2005-11-03T17:30:00Z,28.9818,-94.9186,1023.85,11111222 
TABS,ioos:station:wmo:42043:1,2005-11-03T18:00:00Z,28.9818,-94.9186,1023.16,11111222 
TABS,ioos:station:wmo:42043:1,2005-11-03T18:30:00Z,28.9818,-94.9186,1022.55,11111222 
TABS,ioos:station:wmo:42043:1,2005-11-03T19:00:00Z,28.9818,-94.9186,1021.99,11111222 
TABS,ioos:station:wmo:42043:1,2005-11-03T19:30:00Z,28.9818,-94.9186,1021.58,11111222 
TABS,ioos:station:wmo:42043:1,2005-11-03T20:00:00Z,28.9818,-94.9186,1021.2,11111222 
TABS,ioos:station:wmo:42043:1,2005-11-03T20:30:00Z,28.9818,-94.9186,1020.79,11111222 
TABS,ioos:station:wmo:42043:1,2005-11-03T21:00:00Z,28.9818,-94.9186,1020.66,11111222 
TABS,ioos:station:wmo:42043:1,2005-11-03T21:30:00Z,28.9818,-94.9186,1020.6,11111222 
TABS,ioos:station:wmo:42043:1,2005-11-03T22:00:00Z,28.9818,-94.9186,1020.56,11111222 
TABS,ioos:station:wmo:42043:1,2005-11-03T22:30:00Z,28.9818,-94.9186,1020.45,11111222 
TABS,ioos:station:wmo:42043:1,2005-11-03T23:00:00Z,28.9818,-94.9186,1020.18,11111222 
TABS,ioos:station:wmo:42043:1,2005-11-03T23:30:00Z,28.9818,-94.9186,1020.03,11111222 
TABS,ioos:station:wmo:42043:1,2005-11-04T00:00:00Z,28.9818,-94.9186,1019.96,11111222 
TABS,ioos:station:wmo:42043:1,2005-11-04T00:30:00Z,28.9818,-94.9186,1019.95,11111222 
TABS,ioos:station:wmo:42043:1,2005-11-04T01:00:00Z,28.9818,-94.9186,1020.03,11111222 
TABS,ioos:station:wmo:42043:1,2005-11-04T01:30:00Z,28.9818,-94.9186,1020.25,11111222 
TABS,ioos:station:wmo:42043:1,2005-11-04T02:00:00Z,28.9818,-94.9186,1020.28,11111222 
TABS,ioos:station:wmo:42043:1,2005-11-04T02:30:00Z,28.9818,-94.9186,1020.14,11111222 
TABS,ioos:station:wmo:42043:1,2005-11-04T03:00:00Z,28.9818,-94.9186,1020.27,11111222 
TABS,ioos:station:wmo:42043:1,2005-11-04T03:30:00Z,28.9818,-94.9186,1020.27,11111222 
TABS,ioos:station:wmo:42043:1,2005-11-04T04:00:00Z,28.9818,-94.9186,1019.85,11111222 
TABS,ioos:station:wmo:42043:1,2005-11-04T04:30:00Z,28.9818,-94.9186,1019.54,11111222 
TABS,ioos:station:wmo:42043:1,2005-11-04T05:00:00Z,28.9818,-94.9186,1019.15,11111222 
TABS,ioos:station:wmo:42043:1,2005-11-04T05:30:00Z,28.9818,-94.9186,1018.91,11111222 
TABS,ioos:station:wmo:42043:1,2005-11-04T06:00:00Z,28.9818,-94.9186,1018.84,11111222 
TABS,ioos:station:wmo:42043:1,2005-11-04T06:30:00Z,28.9818,-94.9186,1018.87,11111222 
TABS,ioos:station:wmo:42043:1,2005-11-04T07:00:00Z,28.9818,-94.9186,1018.34,11111222 
TABS,ioos:station:wmo:42043:1,2005-11-04T07:30:00Z,28.9818,-94.9186,1018.31,11111222 
TABS,ioos:station:wmo:42043:1,2005-11-04T08:00:00Z,28.9818,-94.9186,1017.48,11111222 
TABS,ioos:station:wmo:42043:1,2005-11-04T08:30:00Z,28.9818,-94.9186,1016.98,11111222 
TABS,ioos:station:wmo:42043:1,2005-11-04T09:00:00Z,28.9818,-94.9186,1017.17,11111222 
TABS,ioos:station:wmo:42043:1,2005-11-04T09:30:00Z,28.9818,-94.9186,1017.17,11111222 
TABS,ioos:station:wmo:42043:1,2005-11-04T10:00:00Z,28.9818,-94.9186,1016.81,11111222 
TABS,ioos:station:wmo:42043:1,2005-11-04T10:30:00Z,28.9818,-94.9186,1016.59,11111222 
TABS,ioos:station:wmo:42043:1,2005-11-04T11:00:00Z,28.9818,-94.9186,1016.79,11111222 
TABS,ioos:station:wmo:42043:1,2005-11-04T11:30:00Z,28.9818,-94.9186,1016.74,11111222 
TABS,ioos:station:wmo:42043:1,2005-11-04T12:00:00Z,28.9818,-94.9186,1016.68,11111222 
TABS,ioos:station:wmo:42043:1,2005-11-04T12:30:00Z,28.9818,-94.9186,1016.97,11111222 
TABS,ioos:station:wmo:42043:1,2005-11-04T13:00:00Z,28.9818,-94.9186,1017.23,11111222 
TABS,ioos:station:wmo:42043:1,2005-11-04T13:30:00Z,28.9818,-94.9186,1017.12,11111222 
TABS,ioos:station:wmo:42043:1,2005-11-04T14:00:00Z,28.9818,-94.9186,1017.31,11111222 
TABS,ioos:station:wmo:42043:1,2005-11-04T14:30:00Z,28.9818,-94.9186,1017.47,11111222 
TABS,ioos:station:wmo:42043:1,2005-11-04T15:00:00Z,28.9818,-94.9186,1017.42,11111222 
TABS,ioos:station:wmo:42043:1,2005-11-04T15:30:00Z,28.9818,-94.9186,1017.28,11111222 
TABS,ioos:station:wmo:42043:1,2005-11-04T16:00:00Z,28.9818,-94.9186,1017.3,11111222 
TABS,ioos:station:wmo:42043:1,2005-11-04T16:30:00Z,28.9818,-94.9186,1017.32,11111222 
TABS,ioos:station:wmo:42043:1,2005-11-04T17:00:00Z,28.9818,-94.9186,1016.99,11111222 
TABS,ioos:station:wmo:42043:1,2005-11-04T17:30:00Z,28.9818,-94.9186,1016.72,11111222 
TABS,ioos:station:wmo:42043:1,2005-11-04T18:00:00Z,28.9818,-94.9186,1016.51,11111222 
TABS,ioos:station:wmo:42043:1,2005-11-04T18:30:00Z,28.9818,-94.9186,1016.14,11111222 
TABS,ioos:station:wmo:42043:1,2005-11-04T19:00:00Z,28.9818,-94.9186,1015.79,11111222 
TABS,ioos:station:wmo:42043:1,2005-11-04T19:30:00Z,28.9818,-94.9186,1015.52,11111222 
TABS,ioos:station:wmo:42043:1,2005-11-04T20:00:00Z,28.9818,-94.9186,1015.28,11111222 
TABS,ioos:station:wmo:42043:1,2005-11-04T20:30:00Z,28.9818,-94.9186,1014.84,11111222 
TABS,ioos:station:wmo:42043:1,2005-11-04T21:00:00Z,28.9818,-94.9186,1014.86,11111222 
TABS,ioos:station:wmo:42043:1,2005-11-04T21:30:00Z,28.9818,-94.9186,1014.77,11111222 
TABS,ioos:station:wmo:42043:1,2005-11-04T22:00:00Z,28.9818,-94.9186,1014.57,11111222 
TABS,ioos:station:wmo:42043:1,2005-11-04T22:30:00Z,28.9818,-94.9186,1014.52,11111222 
TABS,ioos:station:wmo:42043:1,2005-11-04T23:00:00Z,28.9818,-94.9186,1014.49,11111222 
TABS,ioos:station:wmo:42043:1,2005-11-04T23:30:00Z,28.9818,-94.9186,1014.44,11111222 
TABS,ioos:station:wmo:42043:1,2005-11-05T00:00:00Z,28.9818,-94.9186,1014.41,11111222 
TABS,ioos:station:wmo:42043:1,2005-11-05T00:30:00Z,28.9818,-94.9186,1014.47,11111222 
TABS,ioos:station:wmo:42043:1,2005-11-05T01:00:00Z,28.9818,-94.9186,1014.65,11111222 
TABS,ioos:station:wmo:42043:1,2005-11-05T01:30:00Z,28.9818,-94.9186,1014.62,11111222 
TABS,ioos:station:wmo:42043:1,2005-11-05T02:00:00Z,28.9818,-94.9186,1014.62,11111222 
TABS,ioos:station:wmo:42043:1,2005-11-05T02:30:00Z,28.9818,-94.9186,1014.45,11111222 
TABS,ioos:station:wmo:42043:1,2005-11-05T03:00:00Z,28.9818,-94.9186,1014.38,11111222 
TABS,ioos:station:wmo:42043:1,2005-11-05T03:30:00Z,28.9818,-94.9186,1014.27,11111222 
TABS,ioos:station:wmo:42043:1,2005-11-05T04:00:00Z,28.9818,-94.9186,1014.57,11111222 
TABS,ioos:station:wmo:42043:1,2005-11-05T04:30:00Z,28.9818,-94.9186,1014.3,11111222 
TABS,ioos:station:wmo:42043:1,2005-11-05T05:00:00Z,28.9818,-94.9186,1014.09,11111222 
TABS,ioos:station:wmo:42043:1,2005-11-05T05:30:00Z,28.9818,-94.9186,1013.86,11111222 
TABS,ioos:station:wmo:42043:1,2005-11-05T06:00:00Z,28.9818,-94.9186,1013.34,11111222 
TABS,ioos:station:wmo:42043:1,2005-11-05T06:30:00Z,28.9818,-94.9186,1013.04,11111222 
TABS,ioos:station:wmo:42043:1,2005-11-05T07:00:00Z,28.9818,-94.9186,1013.14,11111222 
TABS,ioos:station:wmo:42043:1,2005-11-05T07:30:00Z,28.9818,-94.9186,1013.2,11111222 
TABS,ioos:station:wmo:42043:1,2005-11-05T08:00:00Z,28.9818,-94.9186,1012.92,11111222 
TABS,ioos:station:wmo:42043:1,2005-11-05T08:30:00Z,28.9818,-94.9186,1012.83,11111222 
TABS,ioos:station:wmo:42043:1,2005-11-05T09:00:00Z,28.9818,-94.9186,1012.6,11111222 
TABS,ioos:station:wmo:42043:1,2005-11-05T09:30:00Z,28.9818,-94.9186,1012.35,11111222 
TABS,ioos:station:wmo:42043:1,2005-11-05T10:00:00Z,28.9818,-94.9186,1012.42,11111222 
TABS,ioos:station:wmo:42043:1,2005-11-05T10:30:00Z,28.9818,-94.9186,1012.51,11111222 
TABS,ioos:station:wmo:42043:1,2005-11-05T11:00:00Z,28.9818,-94.9186,1012.47,11111222 
TABS,ioos:station:wmo:42043:1,2005-11-05T11:30:00Z,28.9818,-94.9186,1012.46,11111222 
TABS,ioos:station:wmo:42043:1,2005-11-05T12:00:00Z,28.9818,-94.9186,1012.72,11111222 
TABS,ioos:station:wmo:42043:1,2005-11-05T12:30:00Z,28.9818,-94.9186,1012.82,11111222 
TABS,ioos:station:wmo:42043:1,2005-11-05T13:00:00Z,28.9818,-94.9186,1012.87,11111222 
TABS,ioos:station:wmo:42043:1,2005-11-05T13:30:00Z,28.9818,-94.9186,1013.02,11111222 
TABS,ioos:station:wmo:42043:1,2005-11-05T14:00:00Z,28.9818,-94.9186,1013.17,11111222 
TABS,ioos:station:wmo:42043:1,2005-11-05T14:30:00Z,28.9818,-94.9186,1013.48,11111222 
TABS,ioos:station:wmo:42043:1,2005-11-05T15:00:00Z,28.9818,-94.9186,1013.68,11111222 
TABS,ioos:station:wmo:42043:1,2005-11-05T15:30:00Z,28.9818,-94.9186,1013.92,11111222 
TABS,ioos:station:wmo:42043:1,2005-11-05T16:00:00Z,28.9818,-94.9186,1013.84,11111222 
TABS,ioos:station:wmo:42043:1,2005-11-05T16:30:00Z,28.9818,-94.9186,1013.59,11111222 
TABS,ioos:station:wmo:42043:1,2005-11-05T17:00:00Z,28.9818,-94.9186,1013.61,11111222 
TABS,ioos:station:wmo:42043:1,2005-11-05T17:30:00Z,28.9818,-94.9186,1013.25,11111222 
TABS,ioos:station:wmo:42043:1,2005-11-05T18:00:00Z,28.9818,-94.9186,1013.12,11111222 
TABS,ioos:station:wmo:42043:1,2005-11-05T18:30:00Z,28.9818,-94.9186,1012.53,11111222 
TABS,ioos:station:wmo:42043:1,2005-11-05T19:00:00Z,28.9818,-94.9186,1012.16,11111222 
TABS,ioos:station:wmo:42043:1,2005-11-05T19:30:00Z,28.9818,-94.9186,1011.92,11111222 
TABS,ioos:station:wmo:42043:1,2005-11-05T20:00:00Z,28.9818,-94.9186,1012.07,11111222 
TABS,ioos:station:wmo:42043:1,2005-11-05T20:30:00Z,28.9818,-94.9186,1012.04,11111222 
TABS,ioos:station:wmo:42043:1,2005-11-05T21:00:00Z,28.9818,-94.9186,1011.99,11111222 
TABS,ioos:station:wmo:42043:1,2005-11-05T21:30:00Z,28.9818,-94.9186,1011.86,11111222 
TABS,ioos:station:wmo:42043:1,2005-11-05T22:00:00Z,28.9818,-94.9186,1011.84,11111222 
TABS,ioos:station:wmo:42043:1,2005-11-05T22:30:00Z,28.9818,-94.9186,1012.03,11111222 
TABS,ioos:station:wmo:42043:1,2005-11-05T23:00:00Z,28.9818,-94.9186,1012.26,11111222 
TABS,ioos:station:wmo:42043:1,2005-11-05T23:30:00Z,28.9818,-94.9186,1012.45,11111222 
TABS,ioos:station:wmo:42043:1,2005-11-06T00:00:00Z,28.9818,-94.9186,1012.86,11111222 
TABS,ioos:station:wmo:42043:1,2005-11-06T00:30:00Z,28.9818,-94.9186,1013.04,11111222 
TABS,ioos:station:wmo:42043:1,2005-11-06T01:00:00Z,28.9818,-94.9186,1013.3,11111222 
TABS,ioos:station:wmo:42043:1,2005-11-06T01:30:00Z,28.9818,-94.9186,1013.44,11111222 
TABS,ioos:station:wmo:42043:1,2005-11-06T02:00:00Z,28.9818,-94.9186,1013.54,11111222 
TABS,ioos:station:wmo:42043:1,2005-11-06T02:30:00Z,28.9818,-94.9186,1013.56,11111222 
TABS,ioos:station:wmo:42043:1,2005-11-06T03:00:00Z,28.9818,-94.9186,1013.77,11111222 
TABS,ioos:station:wmo:42043:1,2005-11-06T03:30:00Z,28.9818,-94.9186,1014.04,11111222 
TABS,ioos:station:wmo:42043:1,2005-11-06T04:00:00Z,28.9818,-94.9186,1013.89,11111222 
TABS,ioos:station:wmo:42043:1,2005-11-06T04:30:00Z,28.9818,-94.9186,1013.99,11111222 
TABS,ioos:station:wmo:42043:1,2005-11-06T05:00:00Z,28.9818,-94.9186,1014.22,11111222 
TABS,ioos:station:wmo:42043:1,2005-11-06T05:30:00Z,28.9818,-94.9186,1014.27,11111222 
TABS,ioos:station:wmo:42043:1,2005-11-06T06:00:00Z,28.9818,-94.9186,1014.38,11111222 
TABS,ioos:station:wmo:42043:1,2005-11-06T06:30:00Z,28.9818,-94.9186,1014.67,11111222 
TABS,ioos:station:wmo:42043:1,2005-11-06T07:00:00Z,28.9818,-94.9186,1014.91,11111222 
TABS,ioos:station:wmo:42043:1,2005-11-06T07:30:00Z,28.9818,-94.9186,1014.91,11111222 
TABS,ioos:station:wmo:42043:1,2005-11-06T08:00:00Z,28.9818,-94.9186,1014.96,11111222 
TABS,ioos:station:wmo:42043:1,2005-11-06T08:30:00Z,28.9818,-94.9186,1014.88,11111222 
TABS,ioos:station:wmo:42043:1,2005-11-06T09:00:00Z,28.9818,-94.9186,1014.89,11111222 
TABS,ioos:station:wmo:42043:1,2005-11-06T09:30:00Z,28.9818,-94.9186,1015.03,11111222 
TABS,ioos:station:wmo:42043:1,2005-11-06T10:00:00Z,28.9818,-94.9186,1015.01,11111222 
TABS,ioos:station:wmo:42043:1,2005-11-06T10:30:00Z,28.9818,-94.9186,1015.11,11111222 
TABS,ioos:station:wmo:42043:1,2005-11-06T11:00:00Z,28.9818,-94.9186,1015.54,11111222 
TABS,ioos:station:wmo:42043:1,2005-11-06T11:30:00Z,28.9818,-94.9186,1015.95,11111222 
TABS,ioos:station:wmo:42043:1,2005-11-06T12:00:00Z,28.9818,-94.9186,1016.38,11111222 
TABS,ioos:station:wmo:42043:1,2005-11-06T12:30:00Z,28.9818,-94.9186,1016.57,11111222 
TABS,ioos:station:wmo:42043:1,2005-11-06T13:00:00Z,28.9818,-94.9186,1016.89,11111222 
TABS,ioos:station:wmo:42043:1,2005-11-06T13:30:00Z,28.9818,-94.9186,1017.5,11111222 
TABS,ioos:station:wmo:42043:1,2005-11-06T14:00:00Z,28.9818,-94.9186,1017.87,11111222 
TABS,ioos:station:wmo:42043:1,2005-11-06T14:30:00Z,28.9818,-94.9186,1018.24,11111222 
TABS,ioos:station:wmo:42043:1,2005-11-06T15:00:00Z,28.9818,-94.9186,1018.53,11111222 
TABS,ioos:station:wmo:42043:1,2005-11-06T15:30:00Z,28.9818,-94.9186,1018.75,11111222 
TABS,ioos:station:wmo:42043:1,2005-11-06T16:00:00Z,28.9818,-94.9186,1018.87,11111222 
TABS,ioos:station:wmo:42043:1,2005-11-06T16:30:00Z,28.9818,-94.9186,1018.9,11111222 
TABS,ioos:station:wmo:42043:1,2005-11-06T17:00:00Z,28.9818,-94.9186,1018.79,11111222 
TABS,ioos:station:wmo:42043:1,2005-11-06T17:30:00Z,28.9818,-94.9186,1018.52,11111222 
TABS,ioos:station:wmo:42043:1,2005-11-06T18:00:00Z,28.9818,-94.9186,1018.1,11111222 
TABS,ioos:station:wmo:42043:1,2005-11-06T18:30:00Z,28.9818,-94.9186,1017.81,11111222 